When you browse on this site, cookies collect data to enhance your experience and personalize the content and advertising you see.
Visit our Privacy Policy to learn more. By continuing to use the site, you agree to this use of cookies and data.
  • In United Kingdom
  • List of Countries
  • For 7 days
  • Water Temperature
  • Weather Map
  • Weather Widgets
  • user-avatar
    Login

    Hourly Weather Szarvas

    Today, 29 January, Wednesday

    Time Temperature Precipitation Wind Pressure Humidity
    00:00 +2°C° 0.9 mm 5 mps 745 mmHg 91%
    01:00 +1°C° 0.9 mm 6 mps 745 mmHg 90%
    02:00 +1°C° 0 mm 5 mps 746 mmHg 88%
    03:00 +1°C° 0 mm 5 mps 746 mmHg 85%
    04:00 +1°C° 0 mm 4 mps 747 mmHg 83%
    05:00 0°C° 0 mm 4 mps 747 mmHg 82%
    06:00 0°C° 0 mm 4 mps 748 mmHg 80%
    07:00 0°C° 0 mm 4 mps 749 mmHg 79%
    08:00 +1°C° 0 mm 4 mps 749 mmHg 77%
    09:00 +2°C° 0 mm 5 mps 749 mmHg 75%
    10:00 +3°C° 0 mm 5 mps 749 mmHg 73%
    11:00 +3°C° 0 mm 5 mps 749 mmHg 72%
    12:00 +5°C° 0 mm 4 mps 749 mmHg 72%
    13:00 +5°C° 0 mm 4 mps 749 mmHg 72%
    14:00 +4°C° 0.6 mm 4 mps 749 mmHg 77%
    15:00 +4°C° 0.6 mm 4 mps 749 mmHg 83%
    16:00 +3°C° 0.6 mm 4 mps 749 mmHg 88%
    17:00 +2°C° 0.3 mm 3 mps 750 mmHg 89%
    18:00 +2°C° 0.3 mm 3 mps 751 mmHg 91%
    19:00 +2°C° 0.3 mm 3 mps 751 mmHg 92%
    20:00 +1°C° 0 mm 3 mps 751 mmHg 91%
    21:00 +1°C° 0 mm 3 mps 751 mmHg 90%
    22:00 +1°C° 0 mm 3 mps 752 mmHg 90%
    23:00 0°C° 0 mm 4 mps 752 mmHg 85%

    Tomorrow, 30 January, Thursday

    Time Temperature Precipitation Wind Pressure Humidity
    00:00 0°C° 0 mm 4 mps 752 mmHg 81%
    01:00 0°C° 0 mm 5 mps 753 mmHg 77%
    02:00 0°C° 0 mm 5 mps 753 mmHg 81%
    03:00 0°C° 0 mm 5 mps 753 mmHg 85%
    04:00 0°C° 0 mm 5 mps 753 mmHg 89%
    05:00 -1°C° 0 mm 5 mps 754 mmHg 88%
    06:00 -1°C° 0 mm 5 mps 754 mmHg 87%
    07:00 -1°C° 0 mm 4 mps 754 mmHg 85%
    08:00 0°C° 0 mm 5 mps 755 mmHg 81%
    09:00 -1°C° 0 mm 6 mps 755 mmHg 77%
    10:00 +1°C° 0 mm 6 mps 755 mmHg 72%
    11:00 +2°C° 0 mm 6 mps 755 mmHg 70%
    12:00 +3°C° 0 mm 6 mps 755 mmHg 67%
    13:00 +3°C° 0 mm 6 mps 755 mmHg 65%
    14:00 +3°C° 0 mm 5 mps 755 mmHg 69%
    15:00 +4°C° 0 mm 4 mps 755 mmHg 73%
    16:00 +4°C° 0 mm 2 mps 754 mmHg 77%
    17:00 +3°C° 0 mm 3 mps 754 mmHg 77%
    18:00 +3°C° 0 mm 3 mps 754 mmHg 76%
    19:00 +3°C° 0 mm 3 mps 754 mmHg 76%
    20:00 +3°C° 0 mm 3 mps 754 mmHg 75%
    21:00 +3°C° 0 mm 4 mps 754 mmHg 74%
    22:00 +3°C° 0 mm 4 mps 753 mmHg 72%
    23:00 +1°C° 0 mm 4 mps 753 mmHg 74%

    Day after tomorrow, 31 January, Friday

    Time Temperature Precipitation Wind Pressure Humidity
    00:00 +1°C° 0 mm 4 mps 753 mmHg 76%
    01:00 0°C° 0 mm 4 mps 752 mmHg 78%
    02:00 +1°C° 0 mm 4 mps 752 mmHg 81%
    03:00 +1°C° 0 mm 4 mps 751 mmHg 83%
    04:00 +1°C° 0 mm 4 mps 751 mmHg 86%
    05:00 +1°C° 0 mm 4 mps 751 mmHg 86%
    06:00 +2°C° 0 mm 5 mps 751 mmHg 86%
    07:00 +2°C° 0 mm 6 mps 751 mmHg 86%
    08:00 +3°C° 0.1 mm 6 mps 750 mmHg 85%
    09:00 +4°C° 0.1 mm 6 mps 750 mmHg 83%
    10:00 +5°C° 0.1 mm 7 mps 750 mmHg 82%
    11:00 +6°C° 0.1 mm 7 mps 750 mmHg 77%
    12:00 +7°C° 0.1 mm 8 mps 750 mmHg 73%
    13:00 +9°C° 0.1 mm 8 mps 750 mmHg 69%
    14:00 +9°C° 0.1 mm 8 mps 750 mmHg 71%
    15:00 +9°C° 0.1 mm 8 mps 750 mmHg 73%
    16:00 +9°C° 0.1 mm 7 mps 750 mmHg 75%
    17:00 +8°C° 0 mm 7 mps 750 mmHg 77%
    18:00 +7°C° 0 mm 6 mps 751 mmHg 80%
    19:00 +7°C° 0 mm 6 mps 752 mmHg 83%
    20:00 +7°C° 0 mm 5 mps 752 mmHg 85%
    21:00 +6°C° 0 mm 5 mps 752 mmHg 87%
    22:00 +6°C° 0 mm 4 mps 753 mmHg 88%
    23:00 +6°C° 0 mm 4 mps 753 mmHg 89%

    1 February, Saturday

    Time Temperature Precipitation Wind Pressure Humidity
    00:00 +5°C° 0 mm 3 mps 753 mmHg 89%
    01:00 +5°C° 0 mm 3 mps 753 mmHg 90%
    02:00 +5°C° 0 mm 3 mps 753 mmHg 90%
    03:00 +4°C° 0 mm 3 mps 754 mmHg 90%
    04:00 +4°C° 0 mm 3 mps 754 mmHg 91%
    05:00 +4°C° 0 mm 3 mps 754 mmHg 91%
    06:00 +4°C° 0 mm 3 mps 754 mmHg 91%
    07:00 +4°C° 0 mm 3 mps 754 mmHg 92%
    08:00 +5°C° 0 mm 3 mps 755 mmHg 86%
    09:00 +8°C° 0 mm 3 mps 755 mmHg 81%
    10:00 +9°C° 0 mm 3 mps 755 mmHg 75%
    11:00 +9°C° 0 mm 3 mps 755 mmHg 75%
    12:00 +10°C° 0 mm 3 mps 754 mmHg 74%
    13:00 +11°C° 0 mm 4 mps 754 mmHg 74%
    14:00 +11°C° 0 mm 4 mps 754 mmHg 75%
    15:00 +11°C° 0 mm 4 mps 753 mmHg 76%
    16:00 +11°C° 0 mm 4 mps 753 mmHg 77%
    17:00 +11°C° 0 mm 4 mps 753 mmHg 78%
    18:00 +10°C° 0 mm 4 mps 753 mmHg 79%
    19:00 +9°C° 0 mm 5 mps 752 mmHg 80%
    20:00 +9°C° 0 mm 5 mps 752 mmHg 81%
    21:00 +9°C° 0 mm 5 mps 752 mmHg 81%
    22:00 +8°C° 0 mm 4 mps 751 mmHg 81%
    23:00 +8°C° 0 mm 5 mps 751 mmHg 81%

    2 February, Sunday

    Time Temperature Precipitation Wind Pressure Humidity
    00:00 +8°C° 0 mm 5 mps 751 mmHg 81%
    01:00 +8°C° 0 mm 5 mps 751 mmHg 81%
    02:00 +8°C° 0.2 mm 5 mps 751 mmHg 79%
    03:00 +8°C° 0.2 mm 6 mps 751 mmHg 77%
    04:00 +8°C° 0.2 mm 6 mps 751 mmHg 75%
    05:00 +6°C° 0 mm 7 mps 752 mmHg 71%
    06:00 +6°C° 0 mm 8 mps 752 mmHg 67%
    07:00 +5°C° 0 mm 9 mps 753 mmHg 63%
    08:00 +6°C° 0 mm 9 mps 754 mmHg 62%
    09:00 +6°C° 0 mm 9 mps 755 mmHg 60%
    10:00 +6°C° 0 mm 10 mps 756 mmHg 58%
    11:00 +7°C° 0 mm 9 mps 756 mmHg 57%
    12:00 +7°C° 0 mm 8 mps 756 mmHg 56%
    13:00 +9°C° 0 mm 8 mps 756 mmHg 55%
    14:00 +9°C° 0 mm 6 mps 756 mmHg 57%
    15:00 +8°C° 0 mm 5 mps 756 mmHg 59%
    16:00 +8°C° 0 mm 4 mps 757 mmHg 62%
    17:00 +7°C° 0 mm 4 mps 757 mmHg 65%
    18:00 +7°C° 0 mm 3 mps 757 mmHg 68%
    19:00 +5°C° 0 mm 3 mps 757 mmHg 72%
    20:00 +5°C° 0 mm 3 mps 757 mmHg 71%
    21:00 +5°C° 0 mm 3 mps 757 mmHg 71%
    22:00 +5°C° 0 mm 3 mps 757 mmHg 71%
    23:00 +7°C° 0.1 mm 3 mps 757 mmHg 74%

    3 February, Monday

    Time Temperature Precipitation Wind Pressure Humidity
    00:00 +6°C° 0.1 mm 4 mps 757 mmHg 77%
    01:00 +6°C° 0.1 mm 4 mps 757 mmHg 80%
    02:00 +6°C° 0 mm 5 mps 757 mmHg 79%
    03:00 +6°C° 0 mm 5 mps 756 mmHg 77%
    04:00 +5°C° 0 mm 6 mps 756 mmHg 75%
    05:00 +5°C° 0 mm 6 mps 756 mmHg 75%
    06:00 +6°C° 0 mm 5 mps 756 mmHg 75%
    07:00 +6°C° 0 mm 5 mps 756 mmHg 75%
    08:00 +7°C° 0 mm 6 mps 756 mmHg 73%
    09:00 +8°C° 0 mm 6 mps 756 mmHg 71%
    10:00 +9°C° 0 mm 7 mps 757 mmHg 69%
    11:00 +10°C° 0.1 mm 7 mps 757 mmHg 71%
    12:00 +10°C° 0.1 mm 7 mps 756 mmHg 72%
    13:00 +10°C° 0.1 mm 6 mps 756 mmHg 73%
    14:00 +10°C° 0.2 mm 6 mps 756 mmHg 78%
    15:00 +9°C° 0.2 mm 6 mps 756 mmHg 83%
    16:00 +8°C° 0.2 mm 5 mps 756 mmHg 88%
    17:00 +8°C° 0.1 mm 5 mps 756 mmHg 88%
    18:00 +7°C° 0.1 mm 4 mps 756 mmHg 87%
    19:00 +8°C° 0.1 mm 3 mps 756 mmHg 87%
    20:00 +8°C° 0.1 mm 3 mps 756 mmHg 87%
    21:00 +8°C° 0.1 mm 3 mps 756 mmHg 87%
    22:00 +8°C° 0.1 mm 2 mps 756 mmHg 88%
    23:00 +8°C° 0 mm 3 mps 755 mmHg 84%
    Show more